Back to catalog

FENGYUN 1C DEB

AliveSSO
NORAD 30810·DEBRIS·🇨🇳 China

Launched May 10, 1999 from Taiyuan Satellite Launch Center

Loading…

Next Passes (next 24 hours)

TLE

FreshSource: Space-Track

Epoch: Sep 14, 2026, 03:58 UTC

1 30810U 99025AUU 26257.16558015  .00003736  00000-0  19428-2 0  9995
2 30810  98.6787  62.5824 0172830 357.7940   2.2449 14.07854055982540

Track FENGYUN 1C DEB in real time with AllMySat

Download on the App Store